{"data":{"norad_id":56022,"intl_designator":"2023-042AN","name":"STARLINK-5783","alt_names":[],"object_type":"PAYLOAD","status":"ACTIVE","operator":null,"country":"US","launch_date":"2023-03-24","launch_site_code":"AFETR","launch_vehicle":null,"mission":null,"orbit_class":"UNKNOWN","rcs_meters":null,"size_class":null,"mass_kg":null,"dimensions":null,"purposes":["comms"],"wikipedia_slug":null,"has_3d_model":false,"image_url":null,"decayed_at":null,"tle_current":{"epoch":"2026-09-19T15:36:28.283904Z","epoch_age_seconds":179525,"freshness":"STALE","line1":"1 56022U 23042AN  26262.65032736 -.00000768  00000+0 -18363-4 0  9993","line2":"2 56022  43.0031  29.4615 0001738 266.8315  93.2338 15.27578988192702","mean_motion":15.27578988,"eccentricity":0.0001738,"inclination_deg":43.0031,"raan_deg":29.4615,"arg_perigee_deg":266.8315,"mean_anomaly_deg":93.2338,"bstar":-1.8363e-5,"rev_number":19270,"period_min":94.266811164072,"perigee_km":481.85965166323,"apogee_km":484.24460100355,"semimajor_km":6861.1891263334,"source":"CELESTRAK","updated_at":"2026-09-21T09:00:33.357012Z"}}}